| time (UTC) | temp F | wind direction | speed MPH | gust MPH | rain 1hr in | rain 24hr in | rain mn in | humidity % | barometer mb |
| 20260905071132 | 85 | 155 | 0.0 | 3.0 | 0.00 | 0.00 | 0.00 | 54 | 995.3 |
| 20260905065910 | 72 | 48 | 1.0 | 3.0 | 0.00 | 0.00 | 0.00 | 67 | 1016.0 |
| 20260905061001 | 81 | 299 | 0.0 | 0.0 | 0.00 | 0.00 | 0.00 | 61 | 995.0 |
| 20260905050002 | 74 | 291 | 0.0 | 0.0 | 0.00 | 0.00 | 0.00 | 65 | 994.6 |
| 20260905045916 | 62 | 186 | 0.0 | 0.0 | 0.00 | 0.00 | 0.00 | 64 | 1015.0 |
| 20260905035902 | 63 | 186 | 0.0 | 2.0 | 0.00 | 0.00 | 0.00 | 63 | 1015.1 |
| 20260905031601 | 77 | 332 | 0.0 | 2.0 | 0.00 | 0.00 | 0.00 | 59 | 994.1 |
| 20260905021139 | 77 | 308 | 0.0 | 0.0 | 0.00 | 0.00 | 0.00 | 62 | 993.9 |
| 20260905020506 | 66 | 186 | 0.0 | 2.0 | 0.00 | 0.00 | 0.00 | 58 | 1015.0 |
| 20260905005904 | 67 | 186 | 0.0 | 2.0 | 0.00 | 0.00 | 0.00 | 55 | 1015.2 |
| 20260905001635 | 76 | 308 | 0.0 | 0.0 | 0.00 | 0.00 | 0.00 | 68 | 994.3 |
| 20260904235856 | 68 | 186 | 0.0 | 0.0 | 0.00 | 0.00 | 0.00 | 52 | 1015.6 |
| 20260904221346 | 78 | 280 | 0.0 | 0.0 | 0.00 | 0.00 | 0.00 | 70 | 995.0 |
| 20260904215932 | 72 | 186 | 0.0 | 0.0 | 0.00 | 0.00 | 0.00 | 44 | 1016.0 |
| 20260904211140 | 78 | 317 | 0.0 | 0.0 | 0.00 | 0.00 | 0.00 | 78 | 995.0 |
| 20260904195915 | 79 | 186 | 0.0 | 0.0 | 0.00 | 0.00 | 0.00 | 39 | 1016.1 |
| 20260904191625 | 80 | 46 | 0.0 | 1.0 | 0.00 | 0.00 | 0.00 | 75 | 994.9 |
| 20260904180030 | 82 | 316 | 1.0 | 4.0 | 0.00 | 0.00 | 0.00 | 72 | 994.0 |
| 20260904175914 | 87 | 180 | 1.0 | 4.0 | 0.00 | 0.00 | 0.00 | 34 | 1015.1 |
| 20260904165857 | 91 | 242 | 2.0 | 7.0 | 0.00 | 0.00 | 0.00 | 33 | 1014.9 |
| 20260904161625 | 84 | 231 | 1.0 | 5.0 | 0.00 | 0.00 | 0.00 | 72 | 993.2 |
| 20260904151044 | 86 | 42 | 3.0 | 9.0 | 0.00 | 0.00 | 0.00 | 69 | 993.3 |
| 20260904145909 | 95 | 213 | 3.0 | 14.0 | 0.00 | 0.00 | 0.00 | 35 | 1014.8 |
| 20260904135904 | 96 | 186 | 6.0 | 10.0 | 0.00 | 0.00 | 0.00 | 35 | 1014.9 |
| 20260904131222 | 86 | 117 | 2.0 | 9.0 | 0.00 | 0.00 | 0.00 | 69 | 993.5 |
| 20260904125900 | 96 | 360 | 3.0 | 10.0 | 0.00 | 0.00 | 0.00 | 37 | 1015.2 |
| 20260904111218 | 89 | 29 | 5.0 | 11.0 | 0.00 | 0.00 | 0.00 | 53 | 993.5 |
| 20260904105859 | 92 | 277 | 3.0 | 8.0 | 0.00 | 0.00 | 0.00 | 44 | 1016.1 |
| 20260904101052 | 87 | 130 | 3.0 | 7.0 | 0.00 | 0.00 | 0.00 | 61 | 993.7 |
| 20260904081533 | 87 | 86 | 3.0 | 8.0 | 0.00 | 0.00 | 0.00 | 58 | 993.3 |
| 20260904075915 | 80 | 302 | 2.0 | 6.0 | 0.00 | 0.00 | 0.00 | 57 | 1015.9 |